Change the Weather History Date:

Monday, October 3, 2011

  Actual Average Record
Temperature  
Mean Temperature 40 °F -  
Max Temperature 50 °F 52 °F 60 °F (1967)
Min Temperature 30 °F 37 °F 24 °F (1997)
Degree Days  
Heating Degree Days 25    
Moisture  
Dew Point 33 °F    
Average Humidity 81    
Maximum Humidity 93    
Minimum Humidity 62    
Precipitation  
Precipitation 0.00 in - - ()
Sea Level Pressure  
Sea Level Pressure 29.63 in    
Wind  
Wind Speed 0 mph (NNW)    
Max Wind Speed 4 mph    
Max Gust Speed -    
Visibility 10 miles    
Events      
Averages and records for this station are not official NWS values.
T = Trace of Precipitation, MM = Missing Value Source: NWS Daily Summary

Daily Weather History Graph

Daily Weather History Graph

Search for Another Location

Airport or City:

Trip Planner

Search our weather history database for the weather conditions in past years. The results will help you decide how hot, cold, wet, or windy it might be!

Date:

Astronomy

Oct. 03, 2011 Rise Set
Actual Time 7:11 AM AKDT 6:30 PM AKDT
Civil Twilight 6:31 AM AKDT 7:10 PM AKDT
Nautical Twilight 5:45 AM AKDT 7:56 PM AKDT
Astronomical Twilight 4:57 AM AKDT 8:44 PM AKDT
Moon 3:29 PM AKDT (10/3) 10:31 PM AKDT (10/3)
Length of Visible Light 12h 38m
Length of Day
11h 19m
Waxing Crescent, 47% of the Moon is Illuminated
Oct 3
Waxing Crescent
Oct 3
First Quarter
Oct 11
Full
Oct 19
Last Quarter
Oct 26
New

Hourly Weather History & Observations

Time (AKDT) Temp. Windchill Dew Point Humidity Pressure Visibility Wind Dir Wind Speed Gust Speed Precip Events Conditions
12:16 AM 32.0 °F - 28.4 °F 87% 29.81 in 10.0 mi Calm Calm - N/A   Clear
12:36 AM 32.0 °F - 28.4 °F 87% 29.81 in 10.0 mi Calm Calm - N/A   Clear
12:56 AM 32.0 °F - 28.4 °F 87% 29.80 in 10.0 mi Calm Calm - N/A   Clear
1:16 AM 32.0 °F 28.7 °F 28.4 °F 87% 29.80 in 10.0 mi NNW 3.5 mph - N/A   Clear
1:36 AM 32.0 °F - 28.4 °F 87% 29.79 in 10.0 mi Calm Calm - N/A   Clear
1:56 AM 30.2 °F - 28.4 °F 93% 29.79 in 10.0 mi Calm Calm - N/A   Clear
2:16 AM 30.2 °F - 28.4 °F 93% 29.78 in 10.0 mi Calm Calm - N/A   Clear
2:36 AM 30.2 °F - 28.4 °F 93% 29.77 in 10.0 mi Calm Calm - N/A   Clear
2:56 AM 32.0 °F - 28.4 °F 87% 29.76 in 10.0 mi Calm Calm - N/A   Clear
3:16 AM 30.2 °F - 28.4 °F 93% 29.76 in 10.0 mi Calm Calm - N/A   Clear
3:36 AM 30.2 °F - 28.4 °F 93% 29.75 in 10.0 mi Calm Calm - N/A   Clear
3:56 AM 30.2 °F - 28.4 °F 93% 29.75 in 10.0 mi Calm Calm - N/A   Clear
4:16 AM 30.2 °F - 28.4 °F 93% 29.74 in 10.0 mi Calm Calm - N/A   Clear
4:36 AM 30.2 °F - 26.6 °F 86% 29.72 in 10.0 mi Calm Calm - N/A   Clear
4:56 AM 30.2 °F - 26.6 °F 86% 29.72 in 10.0 mi Calm Calm - N/A   Clear
5:16 AM 30.2 °F - 26.6 °F 86% 29.71 in 10.0 mi Calm Calm - N/A   Clear
5:36 AM 30.2 °F 26.7 °F 26.6 °F 86% 29.70 in 10.0 mi North 3.5 mph - N/A   Clear
5:56 AM 30.2 °F - 26.6 °F 86% 29.70 in 10.0 mi Calm Calm - N/A   Clear
6:16 AM 30.2 °F - 26.6 °F 86% 29.69 in 10.0 mi Calm Calm - N/A   Clear
6:36 AM 30.2 °F - 26.6 °F 86% 29.68 in 10.0 mi Calm Calm - N/A   Clear
6:56 AM 30.2 °F - 26.6 °F 86% 29.68 in 10.0 mi Calm Calm - N/A   Clear
7:16 AM 30.2 °F 26.7 °F 26.6 °F 86% 29.67 in 2.5 mi NNE 3.5 mph - N/A   Partly Cloudy
7:36 AM 30.2 °F - 26.6 °F 86% 29.67 in 10.0 mi Calm Calm - N/A   Partly Cloudy
7:56 AM 30.2 °F - 26.6 °F 86% 29.67 in 10.0 mi Calm Calm - N/A   Clear
8:16 AM 30.2 °F - 28.4 °F 93% 29.66 in 10.0 mi Calm Calm - N/A   Clear
8:36 AM 32.0 °F 28.7 °F 28.4 °F 87% 29.66 in 10.0 mi North 3.5 mph - N/A   Clear
8:56 AM 33.8 °F - 30.2 °F 87% 29.65 in 10.0 mi Calm Calm - N/A   Clear
9:16 AM 33.8 °F - 32.0 °F 93% 29.65 in 10.0 mi Calm Calm - N/A   Clear
9:36 AM 35.6 °F 32.8 °F 33.8 °F 93% 29.64 in 10.0 mi North 3.5 mph - N/A   Clear
9:56 AM 37.4 °F 34.9 °F 35.6 °F 93% 29.63 in 10.0 mi North 3.5 mph - N/A   Clear
10:16 AM 39.2 °F - 37.4 °F 93% 29.63 in 10.0 mi Calm Calm - N/A   Clear
10:36 AM 42.8 °F - 39.2 °F 87% 29.63 in 10.0 mi Calm Calm - N/A   Clear
10:56 AM 44.6 °F - 39.2 °F 81% 29.62 in 10.0 mi Calm Calm - N/A   Clear
11:16 AM 44.6 °F - 39.2 °F 81% 29.61 in 10.0 mi Calm Calm - N/A   Clear
11:36 AM 44.6 °F - 39.2 °F 81% 29.60 in 10.0 mi Calm Calm - N/A   Clear
11:56 AM 46.4 °F - 37.4 °F 71% 29.60 in 10.0 mi Calm Calm - N/A   Clear
12:16 PM 46.4 °F - 37.4 °F 71% 29.59 in 10.0 mi Calm Calm - N/A   Clear
12:36 PM 46.4 °F - 37.4 °F 71% 29.58 in 10.0 mi Calm Calm - N/A   Clear
12:56 PM 46.4 °F - 37.4 °F 71% 29.57 in 10.0 mi Calm Calm - N/A   Clear
1:16 PM 48.2 °F - 37.4 °F 66% 29.56 in 10.0 mi Calm Calm - N/A   Clear
1:36 PM 48.2 °F - 37.4 °F 66% 29.55 in 10.0 mi Calm Calm - N/A   Clear
1:56 PM 48.2 °F - 37.4 °F 66% 29.55 in 10.0 mi Calm Calm - N/A   Clear
2:16 PM 48.2 °F - 37.4 °F 66% 29.53 in 10.0 mi Calm Calm - N/A   Clear
2:36 PM 48.2 °F - 37.4 °F 66% 29.53 in 10.0 mi Calm Calm - N/A   Clear
2:56 PM 50.0 °F - 37.4 °F 62% 29.52 in 10.0 mi Calm Calm - N/A   Clear
3:16 PM 50.0 °F - 37.4 °F 62% 29.51 in 10.0 mi Calm Calm - N/A   Clear
3:36 PM 48.2 °F - 39.2 °F 71% 29.50 in 10.0 mi South 3.5 mph - N/A   Clear
3:56 PM 48.2 °F - 39.2 °F 71% 29.49 in 10.0 mi South 3.5 mph - N/A   Clear
4:16 PM 48.2 °F - 39.2 °F 71% 29.49 in 10.0 mi SW 3.5 mph - N/A   Clear
4:36 PM 48.2 °F - 39.2 °F 71% 29.47 in 10.0 mi WSW 3.5 mph - N/A   Clear
4:56 PM 48.2 °F - 39.2 °F 71% 29.47 in 10.0 mi Calm Calm - N/A   Clear
5:16 PM 48.2 °F - 39.2 °F 71% 29.46 in 10.0 mi Calm Calm - N/A   Partly Cloudy
5:36 PM 46.4 °F - 39.2 °F 76% 29.46 in 10.0 mi Calm Calm - N/A   Mostly Cloudy
5:56 PM 46.4 °F - 39.2 °F 76% 29.46 in 10.0 mi Calm Calm - N/A   Mostly Cloudy
6:16 PM 46.4 °F - 39.2 °F 76% 29.45 in 10.0 mi Calm Calm - N/A   Partly Cloudy
6:36 PM 46.4 °F - 39.2 °F 76% 29.44 in 10.0 mi Calm Calm - N/A   Mostly Cloudy
6:56 PM 44.6 °F - 39.2 °F 81% 29.44 in 10.0 mi Calm Calm - N/A   Overcast
7:16 PM 44.6 °F - 39.2 °F 81% 29.43 in 10.0 mi Calm Calm - N/A   Overcast
7:36 PM 44.6 °F - 39.2 °F 81% 29.42 in 10.0 mi Calm Calm - N/A   Overcast
7:56 PM 44.6 °F 43.1 °F 39.2 °F 81% 29.42 in 10.0 mi North 3.5 mph - N/A   Overcast
8:16 PM 42.8 °F 39.3 °F 39.2 °F 87% 29.41 in 10.0 mi NNW 5.8 mph - N/A   Overcast
8:36 PM 42.8 °F - 37.4 °F 81% 29.40 in 10.0 mi Calm Calm - N/A   Overcast
8:56 PM 42.8 °F 41.1 °F 39.2 °F 87% 29.39 in 10.0 mi NW 3.5 mph - N/A   Overcast
9:16 PM 42.8 °F 41.1 °F 39.2 °F 87% 29.38 in 10.0 mi NNW 3.5 mph - N/A   Overcast
9:36 PM 42.8 °F 40.1 °F 37.4 °F 81% 29.37 in 10.0 mi NW 4.6 mph - N/A   Overcast
9:56 PM 42.8 °F - 37.4 °F 81% 29.36 in 10.0 mi Calm Calm - N/A   Scattered Clouds
10:16 PM 41.0 °F 39.0 °F 35.6 °F 81% 29.36 in 10.0 mi ENE 3.5 mph - N/A   Clear
10:36 PM 39.2 °F - 35.6 °F 87% 29.35 in 10.0 mi Calm Calm - N/A   Clear
10:56 PM 37.4 °F 34.9 °F 35.6 °F 93% 29.35 in 10.0 mi NNE 3.5 mph - N/A   Clear
11:16 PM 37.4 °F - 35.6 °F 93% 29.34 in 10.0 mi Calm Calm - N/A   Clear
11:36 PM 37.4 °F - 33.8 °F 87% 29.33 in 10.0 mi Calm Calm - N/A   Clear